Retour au catalogue

CZ-6A DEB

ActifPO
NORAD 54428·DEBRIS·🇨🇳 China

Lancé Nov 11, 2022 depuis Taiyuan Satellite Launch Center

Loading…

Prochains Passages (prochaines 24 heures)

TLE

FraisSource: Space-Track

Époque: Sep 14, 2026, 13:36 UTC

1 54428U 22151FC  26257.56690877  .00000029  00000-0  85163-4 0  9992
2 54428  99.0856 118.9440 0463982 234.6334 121.0598 13.26971909185722

Suivez CZ-6A DEB en temps réel avec AllMySat

Download on the App Store